timestamp,surface_pressure_avg,surface_temp_avg,battery_voltage,lat,long
2019-06-21 00:00:00+00:00,305.8063,9.8,13.13,47.84626,-54.09684
2019-06-21 00:10:00+00:00,317.653,9.6,12.97,47.84626,-54.09684
2019-06-21 00:20:00+00:00,326.2764,9.68,13.05,47.84626,-54.09684
2019-06-21 00:30:00+00:00,330.1897,9.85,12.97,47.84626,-54.09684
2019-06-21 00:40:00+00:00,335.6396,9.65,13.05,47.84626,-54.09684
2019-06-21 00:50:00+00:00,343.863,9.6,13.05,47.84626,-54.09684
2019-06-21 01:00:00+00:00,348.938,9.71,12.97,47.84626,-54.09684
2019-06-21 01:10:00+00:00,348.9814,9.8,12.89,47.84626,-54.09684
2019-06-21 01:20:00+00:00,351.4947,9.8,12.97,47.84626,-54.09684
2019-06-21 01:30:00+00:00,357.4779,9.8,12.97,47.84626,-54.09684
2019-06-21 01:40:00+00:00,358.888,9.8,12.97,47.84626,-54.09684
2019-06-21 01:50:00+00:00,354.6963,9.9,12.97,47.84626,-54.09684
2019-06-21 02:00:00+00:00,355.3528,9.9,12.89,47.84626,-54.09684
2019-06-21 02:10:00+00:00,358.7264,9.81,12.81,47.84626,-54.09684
2019-06-21 02:20:00+00:00,358.0179,9.97,12.89,47.84626,-54.09684
2019-06-21 02:30:00+00:00,353.4046,10.18,12.89,47.84626,-54.09684
2019-06-21 02:40:00+00:00,352.2845,10.3,12.97,47.84626,-54.09684
2019-06-21 02:50:00+00:00,352.753,10.3,12.97,47.84626,-54.09684
2019-06-21 03:00:00+00:00,347.9379,10.47,12.89,47.84626,-54.09684
2019-06-21 03:10:00+00:00,344.088,10.61,12.81,47.84626,-54.09684
2019-06-21 03:20:00+00:00,342.233,10.7,12.89,47.84626,-54.09684
2019-06-21 03:30:00+00:00,338.9113,10.59,12.89,47.84626,-54.09684
2019-06-21 03:40:00+00:00,333.038,10.63,12.89,47.84626,-54.09684
2019-06-21 03:50:00+00:00,330.0596,10.76,12.89,47.84626,-54.09684
2019-06-21 04:00:00+00:00,325.8763,10.78,12.81,47.84626,-54.09684
2019-06-21 04:10:00+00:00,319.023,10.76,12.81,47.84626,-54.09684
2019-06-21 04:20:00+00:00,313.6547,10.8,12.89,47.84626,-54.09684
2019-06-21 04:30:00+00:00,307.4597,10.8,12.89,47.84626,-54.09684
2019-06-21 04:40:00+00:00,297.6963,10.7,12.89,47.84626,-54.09684
2019-06-21 04:50:00+00:00,290.068,10.65,12.89,47.84626,-54.09684
2019-06-21 05:00:00+00:00,285.4564,10.6,12.81,47.84626,-54.09684
2019-06-21 05:10:00+00:00,275.5681,10.65,12.73,47.84626,-54.09684
2019-06-21 05:20:00+00:00,260.878,10.6,12.81,47.84626,-54.09684
2019-06-21 05:30:00+00:00,254.5531,10.6,12.81,47.84626,-54.09684
2019-06-21 05:40:00+00:00,250.5831,10.5,12.89,47.84626,-54.09684
2019-06-21 05:50:00+00:00,239.5648,10.54,12.89,47.84626,-54.09684
2019-06-21 06:00:00+00:00,227.1631,10.6,12.81,47.84626,-54.09684
2019-06-21 06:10:00+00:00,222.9731,10.57,12.73,47.84626,-54.09684
2019-06-21 06:20:00+00:00,218.8981,10.5,12.81,47.84626,-54.09684
2019-06-21 06:30:00+00:00,209.8148,10.5,12.81,47.84626,-54.09684
2019-06-21 06:40:00+00:00,202.8531,10.5,12.81,47.84626,-54.09684
2019-06-21 06:50:00+00:00,201.1615,10.49,12.81,47.84626,-54.09684
2019-06-21 07:00:00+00:00,196.4898,10.4,12.81,47.84626,-54.09684
2019-06-21 07:10:00+00:00,192.2931,10.4,12.73,47.84626,-54.09684
2019-06-21 07:20:00+00:00,193.9382,10.4,12.81,47.84626,-54.09684
2019-06-21 07:30:00+00:00,194.7464,10.39,12.81,47.84626,-54.09684
2019-06-21 07:40:00+00:00,194.1297,10.4,12.81,47.84626,-54.09684
2019-06-21 07:50:00+00:00,196.5182,10.4,12.81,47.84626,-54.09684
2019-06-21 08:00:00+00:00,201.1364,10.3,12.73,47.84626,-54.09684
2019-06-21 08:10:00+00:00,201.9415,10.27,12.65,47.84626,-54.09684
2019-06-21 08:20:00+00:00,201.8348,10.29,12.73,47.84626,-54.09684
2019-06-21 08:30:00+00:00,207.0031,10.28,12.81,47.84626,-54.09684
2019-06-21 08:40:00+00:00,210.0781,10.29,12.81,47.84626,-54.09684
2019-06-21 08:50:00+00:00,209.7447,10.28,12.81,47.84626,-54.09684
2019-06-21 09:00:00+00:00,212.7698,10.27,12.81,47.84626,-54.09684
2019-06-21 09:10:00+00:00,219.8214,10.27,12.73,47.84626,-54.09684
2019-06-21 09:20:00+00:00,224.5149,10.28,12.81,47.84626,-54.09684
2019-06-21 09:30:00+00:00,222.0864,10.3,12.89,47.84626,-54.09684
2019-06-21 09:40:00+00:00,221.0565,10.3,12.97,47.84626,-54.09684
2019-06-21 09:50:00+00:00,226.3664,10.3,13.05,47.84626,-54.09684
2019-06-21 10:00:00+00:00,229.5531,10.3,13.05,47.84626,-54.09684
2019-06-21 10:10:00+00:00,226.9381,10.3,13.05,47.84626,-54.09684
2019-06-21 10:20:00+00:00,230.6714,10.3,13.13,47.84626,-54.09684
2019-06-21 10:30:00+00:00,238.7031,10.3,13.21,47.84626,-54.09684
2019-06-21 10:40:00+00:00,241.3564,10.2,13.29,47.84626,-54.09684
2019-06-21 10:50:00+00:00,242.9549,10.2,13.37,47.84626,-54.09684
2019-06-21 11:00:00+00:00,246.6064,10.28,13.29,47.84626,-54.09684
2019-06-21 11:10:00+00:00,251.9947,10.27,13.29,47.84626,-54.09684
2019-06-21 11:20:00+00:00,255.3714,10.2,13.44,47.84626,-54.09684
2019-06-21 11:30:00+00:00,261.8398,10.2,13.6,47.84626,-54.09684
2019-06-21 11:40:00+00:00,265.9398,10.2,13.68,47.84626,-54.09684
2019-06-21 11:50:00+00:00,269.3198,10.2,13.68,47.84626,-54.09684
2019-06-21 12:00:00+00:00,269.0497,10.15,13.68,47.84626,-54.09684
2019-06-21 12:10:00+00:00,274.6813,10.2,13.6,47.84626,-54.09684
2019-06-21 12:20:00+00:00,283.5447,10.1,13.68,47.84626,-54.09684
2019-06-21 12:30:00+00:00,292.0764,9.92,13.68,47.84626,-54.09684
2019-06-21 12:40:00+00:00,295.1046,10.03,13.68,47.84626,-54.09684
2019-06-21 12:50:00+00:00,302.7847,10.0,13.68,47.84626,-54.09684
2019-06-21 13:00:00+00:00,306.2747,9.8,13.6,47.84626,-54.09684
2019-06-21 13:10:00+00:00,307.9481,9.84,13.53,47.84626,-54.09684
2019-06-21 13:20:00+00:00,314.7413,9.8,13.68,47.84626,-54.09684
2019-06-21 13:30:00+00:00,322.0746,9.7,13.76,47.84626,-54.09684
2019-06-21 13:40:00+00:00,320.8246,9.74,13.84,47.84626,-54.09684
2019-06-21 13:50:00+00:00,321.533,9.74,14.08,47.84626,-54.09684
2019-06-21 14:00:00+00:00,325.4064,9.7,14.64,47.84626,-54.09684
2019-06-21 14:10:00+00:00,323.8397,9.71,14.4,47.84626,-54.09684
2019-06-21 14:20:00+00:00,321.8646,9.7,14.48,47.84626,-54.09684
2019-06-21 14:30:00+00:00,325.4747,9.7,14.4,47.84626,-54.09684
2019-06-21 14:40:00+00:00,325.7447,9.75,14.4,47.84626,-54.09684
2019-06-21 14:50:00+00:00,323.6146,9.68,14.4,47.84626,-54.09684
2019-06-21 15:00:00+00:00,326.2079,9.41,14.32,47.84626,-54.09684
2019-06-21 15:10:00+00:00,327.1129,9.69,14.32,47.84626,-54.09684
2019-06-21 15:20:00+00:00,323.773,9.9,14.48,47.84626,-54.09684
2019-06-21 15:30:00+00:00,319.6797,9.9,14.4,47.84626,-54.09684
2019-06-21 15:40:00+00:00,316.0213,9.9,14.4,47.84626,-54.09684
2019-06-21 15:50:00+00:00,313.2964,9.95,14.4,47.84626,-54.09684
2019-06-21 16:00:00+00:00,308.778,9.8,14.4,47.84626,-54.09684
2019-06-21 16:10:00+00:00,304.8813,9.76,14.4,47.84626,-54.09684
2019-06-21 16:20:00+00:00,304.9563,9.87,14.4,47.84626,-54.09684
2019-06-21 16:30:00+00:00,300.8947,9.7,14.32,47.84626,-54.09684
2019-06-21 16:40:00+00:00,294.9264,9.6,14.32,47.84626,-54.09684
2019-06-21 16:50:00+00:00,291.0764,9.7,14.32,47.84626,-54.09684
2019-06-21 17:00:00+00:00,287.9446,9.79,14.24,47.84626,-54.09684
2019-06-21 17:10:00+00:00,279.6597,9.68,14.16,47.84626,-54.09684
2019-06-21 17:20:00+00:00,274.3647,9.6,14.24,47.84626,-54.09684
2019-06-21 17:30:00+00:00,273.6081,9.66,14.24,47.84626,-54.09684
2019-06-21 17:40:00+00:00,264.1781,9.8,14.24,47.84626,-54.09684
2019-06-21 17:50:00+00:00,251.3381,9.7,14.24,47.84626,-54.09684
2019-06-21 18:00:00+00:00,242.8648,9.7,14.24,47.84626,-54.09684
2019-06-21 18:10:00+00:00,240.0281,9.82,14.16,47.84626,-54.09684
2019-06-21 18:20:00+00:00,233.8381,9.9,14.24,47.84626,-54.09684
2019-06-21 18:30:00+00:00,225.5581,9.89,14.24,47.84626,-54.09684
2019-06-21 18:40:00+00:00,219.2181,10.14,14.24,47.84626,-54.09684
2019-06-21 18:50:00+00:00,217.3564,10.43,14.24,47.84626,-54.09684
2019-06-21 19:00:00+00:00,213.3981,10.5,14.08,47.84626,-54.09684
2019-06-21 19:10:00+00:00,205.2831,10.43,14.0,47.84626,-54.09684
2019-06-21 19:20:00+00:00,201.4699,10.59,14.0,47.84626,-54.09684
2019-06-21 19:30:00+00:00,203.6047,10.63,14.0,47.84626,-54.09684
2019-06-21 19:40:00+00:00,201.5164,10.6,14.0,47.84626,-54.09684
2019-06-21 19:50:00+00:00,197.1114,10.6,14.0,47.84626,-54.09684
2019-06-21 20:00:00+00:00,198.8015,10.79,13.92,47.84626,-54.09684
2019-06-21 20:10:00+00:00,203.1731,10.7,13.76,47.84626,-54.09684
2019-06-21 20:20:00+00:00,204.1964,10.6,13.76,47.84626,-54.09684
2019-06-21 20:30:00+00:00,205.2331,10.58,13.68,47.84626,-54.09684
2019-06-21 20:40:00+00:00,209.6331,10.6,13.68,47.84626,-54.09684
2019-06-21 20:50:00+00:00,213.8565,10.5,13.76,47.84626,-54.09684
2019-06-21 21:00:00+00:00,218.1747,10.56,13.68,47.84626,-54.09684
2019-06-21 21:10:00+00:00,219.3065,10.69,13.6,47.84626,-54.09684
2019-06-21 21:20:00+00:00,221.9464,10.8,13.6,47.84626,-54.09684
2019-06-21 21:30:00+00:00,230.4748,10.59,13.6,47.84626,-54.09684
2019-06-21 21:40:00+00:00,236.7381,10.19,13.6,47.84626,-54.09684
2019-06-21 21:50:00+00:00,236.0798,10.3,13.53,47.84626,-54.09684
2019-06-21 22:00:00+00:00,236.6114,10.0,13.44,47.84626,-54.09684
2019-06-21 22:10:00+00:00,235.0565,9.87,13.29,47.84626,-54.09684
2019-06-21 22:20:00+00:00,236.4464,9.95,13.29,47.84626,-54.09684
2019-06-21 22:30:00+00:00,242.2997,10.0,13.29,47.84626,-54.09684
2019-06-21 22:40:00+00:00,246.1281,10.04,13.21,47.84626,-54.09684
2019-06-21 22:50:00+00:00,247.7597,10.1,13.21,47.84626,-54.09684
2019-06-21 23:00:00+00:00,252.8148,10.0,13.13,47.84626,-54.09684
2019-06-21 23:10:00+00:00,259.6131,9.8,12.97,47.84626,-54.09684
2019-06-21 23:20:00+00:00,264.8831,9.87,12.97,47.84626,-54.09684
2019-06-21 23:30:00+00:00,272.668,9.9,12.97,47.84626,-54.09684
2019-06-21 23:40:00+00:00,280.9464,9.8,12.97,47.84626,-54.09684
2019-06-21 23:50:00+00:00,286.4915,9.8,12.97,47.84626,-54.09684
